Change the Weather History Date:

Wednesday, November 27, 2013

  Actual Average Record
Temperature  
Mean Temperature 38 °F -  
Max Temperature 43 °F 48 °F 66 °F (1979)
Min Temperature 30 °F 26 °F 11 °F (1993)
Degree Days  
Heating Degree Days 28    
Moisture  
Dew Point 34 °F    
Average Humidity 87    
Maximum Humidity 100    
Minimum Humidity 51    
Precipitation  
Precipitation 0.86 in - - ()
Sea Level Pressure  
Sea Level Pressure 29.52 in    
Wind  
Wind Speed 6 mph (North)    
Max Wind Speed 15 mph    
Max Gust Speed 28 mph    
Visibility 6 miles    
Events Rain , Snow    
Averages and records for this station are not official NWS values.
T = Trace of Precipitation, MM = Missing Value Source: NWS Daily Summary

Daily Weather History Graph

Daily Weather History Graph

Search for Another Location

Airport or City:

Trip Planner

Search our weather history database for the weather conditions in past years. The results will help you decide how hot, cold, wet, or windy it might be!

Date:

Astronomy

Nov. 27, 2013 Rise Set
Actual Time 7:00 AM EST 4:31 PM EST
Civil Twilight 6:30 AM EST 5:02 PM EST
Nautical Twilight 5:56 AM EST 5:36 PM EST
Astronomical Twilight 5:22 AM EST 6:09 PM EST
Moon 12:56 AM EST (11/27) 1:10 PM EST (11/27)
Length of Visible Light 10h 31m
Length of Day
9h 31m
Waning Crescent, 32% of the Moon is Illuminated
Nov 27
Waning Crescent
Dec 2
New
Dec 9
First Quarter
Dec 17
Full
Dec 25
Last Quarter

Hourly Weather History & Observations

Time (EST) Temp. Windchill Dew Point Humidity Pressure Visibility Wind Dir Wind Speed Gust Speed Precip Events Conditions
12:11 AM 34.0 °F 28.0 °F 33.1 °F 96% 29.76 in 3.0 mi NE 6.9 mph - 0.02 in   Overcast
12:36 AM 34.0 °F 26.6 °F 33.1 °F 96% 29.73 in 2.5 mi NNE 9.2 mph - 0.07 in Rain Rain
12:53 AM 35.1 °F 27.4 °F 33.1 °F 92% 29.72 in 3.0 mi NE 10.4 mph - 0.12 in Rain Rain
1:28 AM 35.1 °F 26.9 °F 34.0 °F 96% 29.66 in 2.5 mi NE 11.5 mph - 0.08 in Rain Rain
1:37 AM 35.1 °F 27.4 °F 34.0 °F 96% 29.64 in 3.0 mi NE 10.4 mph - 0.10 in Rain Light Rain
1:53 AM 35.1 °F 27.9 °F 34.0 °F 96% 29.63 in 3.0 mi NE 9.2 mph - 0.13 in Rain Rain
2:24 AM 37.0 °F 30.4 °F 36.0 °F 96% 29.56 in 2.5 mi NNE 9.2 mph - 0.08 in Rain Rain
2:34 AM 37.0 °F 31.0 °F 36.0 °F 96% 29.54 in 3.0 mi NE 8.1 mph 16.1 mph 0.11 in Rain Rain
2:53 AM 37.9 °F 32.7 °F 37.0 °F 97% 29.53 in 3.0 mi NE 6.9 mph - 0.15 in Rain Rain
3:53 AM 39.9 °F 35.1 °F 39.0 °F 97% 29.45 in 6.0 mi NNE 6.9 mph - 0.06 in Rain Light Rain
4:53 AM 41.0 °F - 39.9 °F 96% 29.42 in 5.0 mi Calm Calm - 0.11 in Rain Rain
5:04 AM 41.0 °F - 41.0 °F 100% 29.41 in 5.0 mi Calm Calm - 0.01 in Rain Light Rain
5:34 AM 41.0 °F - 41.0 °F 100% 29.40 in 4.0 mi Calm Calm - 0.04 in Rain Light Rain
5:46 AM 41.0 °F - 41.0 °F 100% 29.40 in 3.0 mi Calm Calm - 0.06 in Rain Light Rain
5:53 AM 41.0 °F - 41.0 °F 100% 29.41 in 3.0 mi Calm Calm - 0.07 in Rain Light Rain
6:17 AM 41.0 °F - 41.0 °F 100% 29.41 in 5.0 mi Calm Calm - 0.02 in Rain Light Rain
6:45 AM 41.0 °F - 41.0 °F 100% 29.42 in 4.0 mi Calm Calm - 0.05 in Rain Light Rain
6:53 AM 41.0 °F - 41.0 °F 100% 29.43 in 3.0 mi Calm Calm - 0.06 in Rain Light Rain
7:00 AM 41.0 °F - 41.0 °F 100% 29.42 in 4.0 mi Calm Calm - 0.01 in Rain Light Rain
7:53 AM 43.0 °F - 42.1 °F 97% 29.44 in 5.0 mi Calm Calm - 0.05 in Rain Light Rain
8:00 AM 43.0 °F - 42.1 °F 97% 29.44 in 5.0 mi Calm Calm - 0.01 in Rain Light Rain
8:53 AM 43.0 °F - 39.9 °F 89% 29.47 in 8.0 mi Calm Calm - 0.03 in Rain Light Rain
9:53 AM 41.0 °F - 37.0 °F 86% 29.47 in 10.0 mi Calm Calm - 0.01 in   Overcast
10:53 AM 39.9 °F 33.9 °F 35.1 °F 83% 29.44 in 10.0 mi NNW 9.2 mph 18.4 mph N/A   Overcast
11:40 AM 39.9 °F 35.8 °F 33.1 °F 77% 29.42 in 10.0 mi ENE 5.8 mph - N/A   Overcast
11:53 AM 39.9 °F 35.8 °F 33.1 °F 77% 29.45 in 10.0 mi Variable 5.8 mph - N/A   Overcast
12:53 PM 37.9 °F 32.7 °F 32.0 °F 79% 29.45 in 6.0 mi NW 6.9 mph 17.3 mph 0.01 in Rain Light Rain
1:27 PM 37.9 °F 34.4 °F 33.1 °F 83% 29.44 in 7.0 mi Variable 4.6 mph - 0.03 in Rain Light Rain
1:53 PM 37.9 °F 31.5 °F 32.0 °F 79% 29.44 in 10.0 mi North 9.2 mph - 0.04 in   Overcast
2:53 PM 37.0 °F 31.0 °F 32.0 °F 82% 29.44 in 10.0 mi North 8.1 mph 20.7 mph 0.00 in   Overcast
3:53 PM 36.0 °F 30.3 °F 30.9 °F 82% 29.44 in 8.0 mi NNW 6.9 mph - 0.01 in   Overcast
4:45 PM 36.0 °F - 30.9 °F 82% 29.45 in 8.0 mi North - - 0.00 in   Overcast
4:53 PM 36.0 °F 29.6 °F 30.9 °F 82% 29.46 in 8.0 mi NNW 8.1 mph - 0.01 in   Overcast
5:53 PM 35.1 °F 32.2 °F 30.0 °F 82% 29.52 in 4.0 mi Variable 3.5 mph - 0.00 in Snow Light Snow
6:53 PM 36.0 °F 29.6 °F 28.9 °F 76% 29.56 in 10.0 mi WNW 8.1 mph - 0.00 in   Overcast
7:53 PM 34.0 °F 25.0 °F 26.1 °F 73% 29.59 in 10.0 mi WNW 12.7 mph 23.0 mph N/A   Overcast
8:08 PM 34.0 °F 25.5 °F 24.1 °F 67% 29.59 in 10.0 mi WNW 11.5 mph 23.0 mph N/A   Overcast
8:53 PM 33.1 °F 24.4 °F 21.9 °F 64% 29.64 in 10.0 mi WNW 11.5 mph 18.4 mph N/A   Overcast
9:53 PM 32.0 °F 23.0 °F 19.0 °F 59% 29.66 in 10.0 mi NW 11.5 mph 23.0 mph N/A   Overcast
10:53 PM 32.0 °F 21.6 °F 17.1 °F 54% 29.71 in 10.0 mi West 15.0 mph 24.2 mph N/A   Clear
11:53 PM 30.0 °F 19.5 °F 14.0 °F 51% 29.75 in 10.0 mi West 13.8 mph 27.6 mph N/A   Scattered Clouds